Regional Weather Roundup
Issued by NWS

Home | Current Version | Previous Version | Text Only | Print | Product List | Glossary Off
Versions: 1 2 3 4 5 6 7 8 9 10 11 12 13 14 15 16 17 18 19 20 21 22 23 24 25 26 27 28 29 30 31 32 33 34 35 36 37 38 39 40 41 42 43 44 45 46 47 48 49 50

232
ASUS43 KBIS 301602
RWRND

NORTH DAKOTA REGIONAL WEATHER ROUNDUP
NATIONAL WEATHER SERVICE BISMARCK ND
1100 AM CDT FRI SEP 30 2016

NOTE: "FAIR" INDICATES FEW OR NO CLOUDS BELOW 12,000 FEET WITH NO
SIGNIFICANT WEATHER AND/OR OBSTRUCTIONS TO VISIBILITY.


NDZ001>003-009>011-017-301700-
NORTHWEST NORTH DAKOTA

CITY           SKY/WX    TMP DP  RH WIND       PRES   REMARKS
WILLISTON      MOSUNNY   60  47  61 S8        30.03R
MINOT          CLOUDY    59  47  64 SE16G24   30.09F
MINOT AFB      CLOUDY    59  48  67 SE14      30.08S
$$

NDZ018>021-031>035-040>046-301700-
SOUTHWEST NORTH DAKOTA

CITY           SKY/WX    TMP DP  RH WIND       PRES   REMARKS
BISMARCK       CLOUDY    59  48  67 SE13      30.16S
DICKINSON      MOSUNNY   56  44  64 S16       30.05S
GARRISON         N/A     57  48  72 SE14G22   30.09F
HETTINGER ARPT CLOUDY    59  43  55 SE12      30.10R
$$

NDZ004>008-012>016-024-026-027-054-301700-
NORTHEAST NORTH DAKOTA

CITY           SKY/WX    TMP DP  RH WIND       PRES   REMARKS
GRAND FORKS    MOSUNNY   60  51  72 S14       30.31S
GRND FRKS AFB  SUNNY     58  50  74 S12       30.30F
DEVILS LAKE    PTSUNNY   57  49  74 SE18G25   30.24
$$

NDZ022-023-025-028>030-036>039-047>053-301700-
SOUTHEAST NORTH DAKOTA

CITY           SKY/WX    TMP DP  RH WIND       PRES   REMARKS
FARGO          SUNNY     62  51  67 SE16      30.32F
JAMESTOWN      PTSUNNY   58  49  72 S17G23    30.26S
$$





USA.gov is the U.S. government's official web portal to all federal, state and local government web resources and services.